Content
SEND FEEDBACK

Daily
Averages
Monthly
Summary
United States of America

ST. LOUIS, MISSOURI


Home > North America > United States > Missouri
Elevation: 163 meters     Latitude: 38 45N     Longitude: 090 22W

WEATHER
 
SELECT A DAY
Number of Records: 196,477;   Date Range: 1/1/95 - 8/28/14
 
SHARE

PRINT THIS DATA

[ ← Previous Day ]
WEATHER ALMANAC - 1 FEBRUARY, 2013
[ Next Day → ]
[ °F ]   °C
Weather ElementAverageHighLow
Temperature-6.7 °C-1.1 °C (11:54 pm)-13.3 °C (6:54 am)
Dewpoint-16.2 °C-12.8 °C (9:54 pm)-18.9 °C (2:54 am)
Humidity49.2 %70 % (6:54 am)37 % (2:54 pm)
Barometer1030.1 hPa1034.5 hPa (8:54 am)1024.4 hPa (11:54 pm)
Wind Speed9.7 km/h20.4 km/h (1:54 am)
Weather ElementAverage
Visibility16.1 km
Wind DirectionSSW (194.8 °)

Weather ElementTotal
Precipitation---
Heating Degree Days25.6 (Base 18.3)
Averaged from 23 records on 1 February, 2013
WEATHER CONDITIONS BREAKOUT
WIND DIRECTION BREAKOUT
WEATHER BY HOUR - 1 FEBRUARY, 2013
[ °F ]   °C
Local TimeTemperatureDewpointHumidityBarometerVisibilityWind DirectionWind SpeedGust SpeedPrecipitationEventsConditions
1:54 AM-11.7 °C-18.3 °C59 %1031.8 hPa16.1 kmWNW (290°)20.4 km/hClear
2:54 AM-12.2 °C-18.9 °C58 %1031.8 hPa16.1 kmWNW (290°)16.7 km/hClear
3:54 AM-12.2 °C-18.3 °C61 %1031.8 hPa16.1 kmWest (280°)13 km/hClear
4:54 AM-12.8 °C-17.8 °C67 %1032.2 hPa16.1 kmWest (270°)9.3 km/hClear
5:54 AM-12.8 °C-17.8 °C67 %1032.8 hPa16.1 kmWest (260°)9.3 km/hClear
6:54 AM-13.3 °C-17.8 °C70 %1032.8 hPa16.1 kmWest (260°)7.4 km/hClear
7:54 AM-12.2 °C-17.8 °C64 %1033.5 hPa16.1 kmWSW (250°)13 km/hClear
8:54 AM-11.1 °C-18.3 °C56 %1034.5 hPa16.1 kmWest (260°)14.8 km/hClear
9:54 AM-10 °C-17.8 °C54 %1034.2 hPa16.1 kmSW (230°)13 km/hClear
10:54 AM-8.3 °C-16.7 °C52 %1033.9 hPa16.1 kmWest (280°)7.4 km/hClear
11:54 AM-7.2 °C-16.7 °C47 %1033.2 hPa16.1 kmSW (230°)14.8 km/hClear
12:54 PM-5.6 °C-16.1 °C44 %1031.8 hPa16.1 kmSW (230°)18.5 km/hClear
1:54 PM-3.9 °C-15.6 °C41 %1030.5 hPa16.1 kmWest (270°)13 km/hScattered Clouds
2:54 PM-3.3 °C-16.1 °C37 %1029.5 hPa16.1 kmWest (260°)11.1 km/hScattered Clouds
3:54 PM-2.8 °C-15.6 °C37 %1029.1 hPa16.1 kmWest (260°)7.4 km/hScattered Clouds
4:54 PM-2.2 °C-15 °C38 %1028.8 hPa16.1 kmSW (220°)11.1 km/hMostly Cloudy
5:54 PM-2.2 °C-15 °C38 %1028.1 hPa16.1 kmCalmOvercast
6:54 PM-2.2 °C-15 °C38 %1027.8 hPa16.1 kmCalmOvercast
7:54 PM-2.2 °C-15 °C38 %1026.8 hPa16.1 kmCalmOvercast
8:54 PM-2.2 °C-13.9 °C41 %1026.4 hPa16.1 kmCalmOvercast
9:54 PM-1.7 °C-12.8 °C43 %1026.1 hPa16.1 kmSSE (160°)5.6 km/hOvercast
10:54 PM-1.7 °C-13.3 °C41 %1025.1 hPa16.1 kmSouth (180°)9.3 km/hOvercast
11:54 PM-1.1 °C-13.3 °C40 %1024.4 hPa16.1 kmVariable7.4 km/hOvercast
Hourly data recorded from KSUS, located 0 kilometers away from St. Louis, Missouri







STORIES FROM OUR PARTNERS